Location: Observatory
(52.1446°N, 0.4624°W)
Time: 05:25:36
(UTC+01:00)

ISS - Pass Details

Date: 22 July 2021
Orbit: 419 x 421 km, 51.6° (Epoch: 03 August)

Event Time Altitude Azimuth Distance (km) Brightness Sun altitude
Rises 01:13:20 0° 281° (WNW) 2,374 0.2 -17.6°
Reaches altitude 10° 01:15:46 10° 265° (W) 1,505 -1.0 -17.6°
Enters shadow 01:16:21 13° 258° (WSW) 1,332 -1.4 -17.6°
